Location: Litvinovka
(48.6667°N, 34.3500°E)
Time: 15:11:51
(UTC+00:00)

USA 234 - Pass Details

Date: 18 September 2020
Orbit: 1102 x 1106 km, 123.0° (Epoch: 16 October)

Event Time Altitude Azimuth Distance (km) Brightness Sun altitude
Exits shadow 18:31:47 10° 56° (NE) 3,003 5.4 -26.0°
Reaches altitude 10° 18:31:52 10° 56° (NE) 2,967 5.3 -26.0°
Maximum altitude 18:38:27 85° 144° (SE) 1,113 3.1 -26.8°
Drops below altitude 10° 18:45:01 10° 235° (SW) 2,959 5.7 -27.7°
Sets 18:47:29 0° 236° (SW) 3,915 6.3 -28.0°
